Terminal Aerodrome Forecast
Issued by NWS Aberdeen, SD

Home | Current Version | Previous Version | Text Only | Print | Product List | Glossary On
Versions: 1 2 3 4 5 6 7 8 9 10 11 12 13 14 15 16 17 18 19 20 21 22 23 24 25 26 27 28 29 30 31 32 33 34 35 36 37 38 39 40 41 42 43 44 45
000
FTUS43 KABR 212336
TAFABR
TAF
KABR 212336Z 2200/2224 17003KT P6SM SKC
     FM220800 25004KT P6SM BKN130
     FM221200 31005KT P6SM OVC130
     FM221800 34009KT P6SM BKN060
     FM222000 33012KT P6SM BKN025=

USA.gov is the U.S. government's official web portal to all federal, state and local government web resources and services.